User: anonymous   Login
Location: Unspecified
(0.0000°N, 0.0000°E)
Time: 18:42:01
(UTC+00:00)
Language:

RAX-2 - Orbit

View from above orbital plane
View from above orbital plane
View from above satellite
View from above satellite

Ground track
Ground track

The orbit data is extracted from the following two-line orbital elements,

1 37853U 11061D   15063.49014782  .00007197  00000-0  45449-3 0  9998
2 37853 101.7095 223.2262 0201354 021.1588 019.8290 14.94384576181460
Epoch (UTC): 04 March 2015 11:45:48
Eccentricity: 0.0201354
inclination: 101.7095°
perigee height: 444 km
apogee height: 724 km
right ascension of ascending node: 223.2262°
argument of perigee: 21.1588°
revolutions per day: 14.94384576
mean anomaly at epoch: 19.8290°
orbit number at epoch: 18146

The dashed part of the orbit path shows where the satellite is in the earth's shadow,  

DLR